[[{"header":{"parameterUnit":"m.s-1","parameterCategory":1,"la1":30.2991,"la2":30.254,"lo1":-89.0895,"lo2":-89.0444,"dy":0.0017,"dx":0.0017,"nx":28,"ny":28,"refTime":"2023-09-10T21:00:00:Z","depth":0,"parameterNumber":2,"parameterNumberName":"U-component_of_WINDS"},"data":[0,0,0,0,0,0,0,0,0,0,0,0,0,0,0,0,0,0,0,0,0,0,0,0,0,0,0,0,0,0,0,0,0,0,0,0,0,0,0,0,0,0,0,0,0,0,0,0,0,0,0,0,0,0,0,0,0,0,1.902,1.902,0,1.9025,1.9025,1.9026,1.8944,1.8942,1.894,1.8938,1.8947,1.8949,1.8952,0,0,0,0,0,0,0,0,0,0,0,0,0,1.8942,1.8944,1.902,1.902,1.902,1.9025,1.9025,1.9026,1.8945,1.8942,1.8939,1.8937,1.8946,1.8949,1.8952,0,0,0,0,0,0,0,0,0,0,0,0,0,1.8965,1.8944,1.902,1.898,1.8977,1.9025,1.9025,1.9026,1.8945,1.8942,1.8939,1.8936,1.8945,1.8949,1.8952,1.904,0,0,1.8963,1.8964,0,0,0,0,0,0,0,0,1.8963,1.8968,1.8986,1.8983,1.8979,1.8981,1.9001,1.9031,1.8946,1.8958,1.8938,1.8934,1.8961,1.8963,1.8972,1.9041,1.9041,1.8963,1.8965,1.8967,1.8968,0,0,0,0,0,0,0,1.8962,1.8967,1.9022,1.8987,1.8983,1.8963,1.8963,1.9006,1.8978,1.8956,1.895,1.8952,1.8959,1.8969,1.8971,1.9041,1.8963,1.8966,1.8968,1.897,1.9179,1.9182,0,0,0,0,0,0,1.8965,1.8966,1.9022,1.9022,1.8963,1.8967,1.8967,1.8984,1.8977,1.8973,1.8955,1.8948,1.8964,1.8967,1.8971,1.9071,1.8967,1.897,1.8972,1.9175,1.918,1.9183,0,0,0,0,0,0,1.8964,1.8971,1.9022,1.8993,1.8998,1.8972,1.8992,1.8986,1.8995,1.8976,1.8971,1.897,1.8962,1.8966,1.9023,1.907,1.8972,1.8975,1.9171,1.9177,1.9182,1.9273,0,0,0,0,0,0,1.8962,1.8971,1.9004,1.8994,1.8999,1.9073,1.8995,1.8988,1.9001,1.8992,1.8989,1.8985,1.8959,1.9018,1.9026,1.9073,1.8977,1.9167,1.9174,1.918,1.9266,1.9281,1.9294,0,0,0,0,0,1.896,1.9031,1.9006,1.9013,1.904,1.9076,1.9079,1.9047,1.9005,1.9038,1.9025,1.8985,1.9064,1.9024,1.9033,1.9082,1.9164,1.9172,1.9179,1.926,1.9278,1.9294,0,0,0,0,0,0,1.905,1.9029,1.9001,1.9072,1.9076,1.9062,1.9103,1.9068,1.9086,1.9077,1.9038,1.9038,1.91,1.9097,1.9053,1.9165,1.9106,1.9116,1.9164,1.9182,1.9196,1.9195,1.898,0,0,0,0,0,1.9078,1.9108,1.9089,1.9153,1.9156,1.9129,1.9144,1.9118,1.9122,1.9124,1.9115,1.9121,1.9146,1.9164,1.9187,1.9265,1.9262,1.9303,1.9317,1.9329,1.9337,1.9376,1.9393,1.9209,1.9209,1.9209,0,0,1.9137,1.9129,1.9151,1.9171,1.9171,1.9203,1.9131,1.9169,1.9192,1.913,1.9181,1.9175,1.9178,1.9245,1.9274,1.9245,1.9387,1.9339,1.9348,1.935,1.9385,1.9403,1.9418,1.9214,1.9213,1.9213,0,0,1.9259,1.9257,1.9308,1.9309,1.9309,1.929,1.9303,1.9294,1.9286,1.9337,1.929,1.9317,1.9363,1.9366,1.9374,1.9495,1.9458,1.9503,1.9576,1.9614,1.9629,1.9641,1.9682,1.9697,1.9512,1.9513,1.9513,0,1.9332,1.9377,1.934,1.9379,1.9388,1.9331,1.9382,1.9386,1.9394,1.9402,1.9369,1.9422,1.9421,1.9486,1.9515,1.9524,1.9536,1.9503,1.9629,1.9642,1.9653,1.9691,1.9707,1.9518,1.9517,1.9517,1.9516,0,1.9465,1.9497,1.9539,1.9546,1.956,1.9606,1.9575,1.9594,1.9567,1.9552,1.9603,1.9599,1.9618,1.9632,1.9608,1.9693,1.9674,1.9636,1.9576,1.9676,1.9712,1.9726,1.9526,1.9524,1.9522,1.9521,0,0,1.9646,1.9629,1.9645,1.9645,1.964,1.9665,1.9707,1.9724,1.974,1.9748,1.9782,1.982,1.9783,1.9792,1.9767,1.9801,1.9893,1.9757,1.9757,1.9781,1.9984,2.0012,2.003,1.9869,1.9871,1.9873,1.9983,0,1.9763,1.9832,1.9799,1.9873,1.99,1.9845,1.9882,1.9882,1.9869,1.9891,1.9877,1.9903,1.9854,1.9858,1.9889,1.9875,1.9933,1.9867,1.9899,1.99,1.9898,2.0049,2.0079,2.0183,1.9997,2.0,2.0001,0,1.9909,1.9919,1.9995,1.9981,1.9992,2.0025,2.0036,2.0059,2.0058,2.0045,2.0054,2.002,2.006,2.0002,2.0056,2.0011,2.0022,2.0017,2.0021,2.0021,1.9956,2.0052,2.0216,2.0231,2.0023,2.0021,2.002,0,2.003,2.0063,2.0112,2.0115,2.0101,2.0125,2.0121,2.0117,2.0128,2.0138,2.0145,2.0161,2.017,2.0183,2.0154,2.0114,2.0211,2.0151,2.0201,2.0202,2.0223,2.0222,2.039,2.0234,2.0234,2.0233,2.0233,0,2.0163,2.0211,2.0165,2.0195,2.0247,2.0208,2.026,2.025,2.0246,2.0273,2.0228,2.0254,2.0215,2.0237,2.0215,2.0262,2.0267,2.0258,2.0251,2.0261,2.0262,2.0267,2.0258,2.0237,2.0236,2.0236,2.0235,0,2.0307,2.0279,2.0327,2.0309,2.0306,2.0344,2.0329,2.0356,2.0338,2.0372,2.0378,2.0351,2.0375,2.0347,2.037,2.0354,2.0417,2.0401,2.0417,2.0411,2.0462,2.0457,2.0638,2.0658,2.0491,2.0493,2.0494,0,2.0393,2.0428,2.0412,2.0426,2.0423,2.0447,2.0457,2.0419,2.0432,2.0432,2.0459,2.0478,2.0491,2.0532,2.0515,2.0531,2.0513,2.0575,2.0515,2.0523,2.0511,2.0509,2.0511,2.0587,2.0589,2.0591,2.0592,0,2.0548,2.0531,2.0547,2.0557,2.057,2.0577,2.0581,2.0595,2.0556,2.0572,2.0594,2.0605,2.0625,2.0645,2.0656,2.0651,2.0615,2.0611,2.0623,2.0633,2.064,2.0634,2.0448,2.0607,2.0605,2.0604,2.0604,2.0603,2.0664,2.0692,2.0684,2.0702,2.07,2.0704,2.0727,2.0711,2.0728,2.074,2.0718,2.0745,2.0742,2.0752,2.0751,2.0773,2.0746,2.0764,2.0769,2.0773,2.078,2.0637,2.0775,2.0774,2.0774,2.0774,2.0773,0,2.0815,2.0806,2.0824,2.0828,2.0842,2.0805,2.0806,2.0821,2.0845,2.0844,2.0856,2.0881,2.0899,2.0882,2.0896,2.0916,2.09,2.0921,2.0918,2.0917,2.0804,2.0791,2.0934,2.0934,2.0934,2.0934,2.0934,2.0934,2.0895,2.0938,2.092,2.0961,2.0952,2.0977,2.0981,2.0984,2.0982,2.101,2.1024,2.1012,2.1004,2.1017,2.1031,2.1025,2.1032,2.1059,2.1048,2.0942,2.0926,2.0911,2.0898,2.1061,2.1061,2.1159,2.116,2.116]},{"header":{"parameterUnit":"m.s-1","parameterCategory":1,"la1":30.2991,"la2":30.254,"lo1":-89.0895,"lo2":-89.0444,"dy":0.0017,"dx":0.0017,"nx":28,"ny":28,"refTime":"2023-09-10T21:00:00:Z","depth":0,"parameterNumber":3,"parameterNumberName":"V-component_of_WINDS"},"data":[0,0,0,0,0,0,0,0,0,0,0,0,0,0,0,0,0,0,0,0,0,0,0,0,0,0,0,0,0,0,0,0,0,0,0,0,0,0,0,0,0,0,0,0,0,0,0,0,0,0,0,0,0,0,0,0,0,0,0.6217,0.6217,0,0.626,0.6261,0.6261,0.6255,0.6254,0.6253,0.6252,0.6296,0.6298,0.63,0,0,0,0,0,0,0,0,0,0,0,0,0,0.6127,0.6129,0.6217,0.6217,0.6218,0.626,0.6261,0.6261,0.6255,0.6254,0.6253,0.6252,0.6296,0.6298,0.63,0,0,0,0,0,0,0,0,0,0,0,0,0,0.6168,0.6129,0.6217,0.622,0.622,0.626,0.6261,0.6261,0.6255,0.6254,0.6253,0.6252,0.6295,0.6298,0.6301,0.634,0,0,0.6309,0.631,0,0,0,0,0,0,0,0,0.6165,0.6171,0.6219,0.6219,0.622,0.6251,0.6245,0.6288,0.6255,0.6242,0.6252,0.6251,0.6282,0.6286,0.6296,0.6342,0.6344,0.6309,0.6311,0.6312,0.6313,0,0,0,0,0,0,0,0.6163,0.6169,0.6234,0.6219,0.622,0.6218,0.6223,0.6253,0.6268,0.6243,0.6242,0.6248,0.6282,0.6294,0.6297,0.6345,0.6309,0.6312,0.6313,0.6315,0.6424,0.6425,0,0,0,0,0,0,0.6159,0.6167,0.6233,0.6235,0.619,0.6221,0.6226,0.6242,0.6267,0.627,0.6249,0.6247,0.629,0.6294,0.6299,0.6347,0.6312,0.6315,0.6316,0.6422,0.6424,0.6425,0,0,0,0,0,0,0.6157,0.6165,0.6231,0.6201,0.6209,0.6224,0.6242,0.6244,0.6255,0.6272,0.6274,0.6258,0.6289,0.6295,0.633,0.6348,0.6316,0.6319,0.6421,0.6423,0.6424,0.6442,0,0,0,0,0,0,0.6155,0.6164,0.618,0.6201,0.6211,0.6261,0.6243,0.6245,0.626,0.6259,0.6281,0.6283,0.6289,0.6326,0.6332,0.6351,0.6321,0.6419,0.6422,0.6424,0.644,0.6444,0.6448,0,0,0,0,0,0.6151,0.6183,0.6181,0.6189,0.6231,0.6262,0.6268,0.6273,0.6261,0.6277,0.6287,0.6283,0.6345,0.6329,0.6337,0.6357,0.6418,0.6421,0.6424,0.6438,0.6443,0.6448,0,0,0,0,0,0,0.6164,0.6186,0.6184,0.6223,0.6241,0.6261,0.6281,0.6278,0.63,0.6298,0.6303,0.6308,0.6343,0.6353,0.6336,0.6396,0.638,0.6384,0.6388,0.6393,0.6397,0.6394,0.6323,0,0,0,0,0,0.6171,0.6195,0.6213,0.6246,0.6255,0.6267,0.6281,0.6283,0.6302,0.6309,0.6322,0.634,0.6363,0.6379,0.6401,0.6441,0.6445,0.6458,0.6462,0.6465,0.6469,0.6491,0.6497,0.6434,0.6434,0.6434,0,0,0.6187,0.6202,0.6217,0.6249,0.6263,0.6288,0.6273,0.63,0.6318,0.6313,0.6347,0.6357,0.6377,0.6414,0.6431,0.6424,0.6487,0.6469,0.6471,0.6474,0.6494,0.65,0.6505,0.6436,0.6436,0.6435,0,0,0.6227,0.6241,0.627,0.6284,0.6306,0.6313,0.6319,0.634,0.6346,0.638,0.6376,0.6398,0.6438,0.6452,0.6465,0.651,0.6506,0.6517,0.6538,0.6559,0.6564,0.6568,0.6584,0.659,0.652,0.652,0.652,0,0.6244,0.6281,0.6286,0.6313,0.6327,0.6323,0.6352,0.6365,0.6393,0.6403,0.6394,0.6443,0.6457,0.6497,0.6508,0.6518,0.6526,0.6515,0.6563,0.6567,0.6571,0.6587,0.6593,0.6522,0.6521,0.6521,0.6521,0,0.6301,0.6326,0.6347,0.6374,0.639,0.6418,0.6426,0.6442,0.6442,0.645,0.6484,0.65,0.6525,0.6534,0.6535,0.6575,0.6569,0.6561,0.6546,0.6578,0.6593,0.6599,0.6523,0.6523,0.6522,0.6522,0,0,0.6352,0.6379,0.6387,0.6399,0.6421,0.6441,0.6468,0.6493,0.6506,0.6525,0.6548,0.6581,0.6574,0.6588,0.659,0.6608,0.6642,0.6598,0.6598,0.6606,0.6687,0.6693,0.67,0.664,0.6641,0.6642,0.6685,0,0.6395,0.6444,0.6448,0.6492,0.6515,0.6511,0.6535,0.6551,0.6558,0.6579,0.6587,0.6611,0.6599,0.6607,0.6625,0.6635,0.6659,0.6631,0.6661,0.6662,0.6657,0.6707,0.6714,0.6755,0.6691,0.6692,0.6692,0,0.6453,0.6473,0.6519,0.6537,0.6547,0.6568,0.6591,0.6611,0.6628,0.6632,0.6648,0.6647,0.6674,0.6657,0.6694,0.6676,0.6688,0.6694,0.6696,0.6699,0.668,0.6713,0.6767,0.6774,0.6701,0.67,0.67,0,0.6486,0.6524,0.6557,0.6567,0.6589,0.6604,0.6613,0.663,0.6644,0.6663,0.6673,0.6695,0.6707,0.6724,0.6729,0.6716,0.6767,0.6749,0.6771,0.6771,0.6783,0.6782,0.6841,0.6789,0.6789,0.6789,0.6789,0,0.6534,0.6563,0.6572,0.6592,0.6623,0.6627,0.6658,0.6666,0.6681,0.6702,0.6699,0.6719,0.6724,0.6745,0.6749,0.678,0.6785,0.6789,0.679,0.679,0.6789,0.6798,0.6796,0.6791,0.679,0.679,0.679,0,0.6577,0.6584,0.6619,0.6637,0.6642,0.6664,0.6679,0.6698,0.6705,0.6732,0.6738,0.6748,0.6772,0.6779,0.6808,0.681,0.6846,0.6844,0.6841,0.6841,0.6862,0.686,0.6929,0.6938,0.688,0.6881,0.6881,0,0.6608,0.663,0.6649,0.6664,0.6674,0.6697,0.6711,0.6715,0.673,0.6751,0.6767,0.6791,0.681,0.6849,0.6859,0.688,0.6879,0.6902,0.6883,0.6881,0.688,0.6879,0.6881,0.6906,0.6906,0.6907,0.6907,0,0.6662,0.6664,0.6685,0.6707,0.6724,0.6742,0.6759,0.677,0.6776,0.6793,0.6818,0.6833,0.6862,0.6885,0.6907,0.6916,0.6913,0.6913,0.6919,0.692,0.6917,0.6919,0.6851,0.6912,0.6911,0.6911,0.6911,0.6911,0.67,0.6719,0.6736,0.6759,0.6772,0.6787,0.6806,0.6814,0.6835,0.6859,0.686,0.6887,0.6902,0.6931,0.6942,0.6962,0.6956,0.6965,0.6967,0.6969,0.6971,0.6913,0.6966,0.6966,0.6966,0.6966,0.6966,0,0.6755,0.6765,0.6786,0.6809,0.6827,0.6822,0.684,0.6855,0.6879,0.6894,0.6913,0.694,0.6963,0.6974,0.6996,0.701,0.7009,0.7016,0.7015,0.7018,0.6976,0.6969,0.7017,0.7016,0.7016,0.7016,0.7016,0.7016,0.6785,0.6817,0.6821,0.6858,0.6868,0.6894,0.6905,0.6919,0.6931,0.6962,0.6981,0.6988,0.7001,0.7024,0.7044,0.7046,0.7055,0.7063,0.7065,0.7026,0.7021,0.7016,0.7009,0.7064,0.7064,0.7105,0.7105,0.7105]}]]